Presure
221 240 253 176 195 206 168 220 187 168 201 158 193 174 201 186 196 164 174 200 190 193 191 194 207 213 224 240 249 276 515 474 457 430 417 405 105 217 256 299 277 257 144 237
243 228 187 206 213 188 203 184 169 152 203 173 160 168 151 155 190 190 188 183 190 202 188 158 196 199 206 230 192 128 282 434 442 436 416 405 381 196 225 314 289 268 253 169
189 162 182 192 191 160 174 173 179 176 163 184 179 164 187 182 181 177 162 189 165 191 189 152 170 197 205 206 209 244 251 324 457 369 418 414 400 354 250 352 287 194 264 195
181 196 171 147 180 180 194 175 154 148 179 180 176 144 155 177 174 184 160 179 195 177 192 196 189 198 192 210 208 220 241 249 308 455 321 334 425 415 377 249 313 244 258 266
171 175 177 178 152 174 168 174 175 177 181 173 184 173 181 176 179 192 185 166 183 151 179 145 177 135 200 211 204 213 233 233 241 281 430 320 241 412 387 317 335 250 109 262
148 145 150 166 145 179 157 167 173 172 173 173 168 171 164 177 180 191 186 182 186 178 191 181 191 159 127 195 185 214 213 221 227 240 76 413 327 301 337 324 236 252 197 148
171 164 183 178 183 182 173 176 172 172 171 175 162 164 179 184 183 174 185 178 195 174 206 199 183 153 181 143 196 170 196 170 218 148 236 252 332 367 289 76 79 246 210 148
149 151 153 157 167 183 185 182 174 150 156 164 185 165 182 179 176 171 170 170 175 193 180 178 184 182 170 197 131 152 191 208 203 207 238 226 241 98 80 386 276 107 273 137
176 171 163 165 163 164 172 171 175 173 169 165 169 160 152 174 163 172 153 167 173 160 181 190 129 166 190 143 180 182 200 145 194 194 72 217 235 235 85 84 306 379 129 269
161 162 164 171 168 169 163 164 165 167 177 166 168 156 155 171 171 157 170 174 182 182 179 179 187 189 172 178 181 146 193 151 188 146 199 200 205 237 234 252 236 263 271 302
160 163 151 170 165 168 167 158 164 176 176 179 173 161 182 179 152 159 180 184 169 170 180 176 178 191 182 178 198 188 198 172 204 201 190 194 210 204 235 227 248 245 238 252
157 160 171 173 163 159 171 169 175 179 168 175 180 161 181 168 167 174 177 172 170 172 173 193 171 194 198 199 174 190 202 203 181 187 195 206 198 224 200 232 238 231 248 236
165 165 157 146 159 181 151 167 161 170 169 176 176 177 178 179 188 191 188 182 195 196 199 198 198 189 197 200 192 211 185 179 206 200 211 186 188 202 204 193 209 232 234 231
153 179 179 183 184 187 192 164 189 197 193 199 177 203 200 201 196 198 178 179 193 195 217 218 198 201 196 199 220 220 214 210 193 215 199 216 203 200 199 196 198 208 205 231
165 182 174 134 129 188 189 136 185 200 145 194 135 186 178 198 199 214 221 219 206 229 209 208 215 185 189 204 205 204 206 211 195 195 212 220 179 201 208 200 200 202 235 207
197 179 123 119 172 118 121 120 184 178 205 221 231 223 224 223 229 229 232 232 223 212 217 222 265 188 191 230 235 227 224 207 203 183 243 204 223 210 203 193 215 226 195 191
164 201 199 201 170 150 207 106 197 210 209 206 213 233 227 215 204 251 264 257 263 268 266 264 245 254 264 258 255 234 203 208 201 192 206 253 206 196 209 203 213 198 183 203
203 195 220 136 181 229 228 210 207 158 227 225 232 233 254 267 197 235 237 229 243 284 282 275 257 259 249 256 246 249 247 250 259 249 224 214 249 242 229 216 198 205 209 193
221 220 202 207 210 222 212 153 244 256 263 273 272 250 235 273 269 242 254 290 254 292 278 286 245 353 304 268 276 273 283 264 251 265 148 253 148 248 242 136 236 229 220 219
139 138 135 207 216 183 252 143 227 226 233 242 229 246 219 239 220 234 304 302 273 304 257 312 287 291 328 269 318 298 279 320 245 265 301 259 277 246 240 257 257 240 223 224
222 187 219 226 229 237 229 242 249 250 239 251 246 260 279 269 294 284 305 316 288 296 106 300 309 312 295 328 328 335 319 320 291 272 345 254 277 322 259 263 266 269 257 247
227 204 228 230 176 177 247 239 258 259 242 274 219 276 305 289 281 277 293 313 308 317 309 307 303 319 314 314 320 308 302 322 276 314 322 310 254 276 281 221 323 284 279 285
244 176 125 228 244 235 275 122 264 250 255 257 275 236 297 305 307 317 311 304 312 313 316 320 324 320 326 318 302 322 326 327 315 322 327 269 330 316 304 307 303 264 254 275
235 167 222 226 283 160 204 261 215 233 231 279 292 277 290 282 261 293 307 305 315 319 316 319 330 333 323 322 324 323 319 322 336 335 347 316 355 331 285 275 284 277 352 295
176 238 199 197 119 90 103 218 281 276 282 281 212 247 260 310 319 314 322 330 337 340 342 345 349 349 345 346 334 342 331 325 323 329 317 338 324 341 338 330 337 348 264 308
257 293 316 130 93 286 279 294 256 224 222 290 208 273 316 324 329 330 337 344 350 349 347 352 356 359 348 354 407 352 415 364 426 317 398 305 368 361 315 332 141 339 397 365
Wind_Speed
30 29 20 24 23 20 22 10 19 19 20 23 25 25 29 29 32 32 25 38 42 46 47 37 51 55 59 61 61 74 17 10 6 18 36 46 32 53 53 86 86 84 49 77
26 22 14 16 15 27 12 22 29 26 18 20 28 23 24 34 35 34 39 36 42 43 45 34 47 49 54 57 44 20 70 29 12 6 20 32 47 56 49 78 85 83 81 57
15 12 12 12 11 27 20 20 12 18 29 22 26 33 37 35 37 31 33 45 32 42 46 31 36 50 54 52 50 56 56 57 21 21 4 14 28 50 49 59 72 63 80 65
14 9 26 20 13 9 19 18 33 30 24 27 27 22 33 35 36 43 28 43 47 36 46 49 47 49 47 54 51 52 52 48 52 22 21 8 14 25 44 43 69 59 72 76
12 8 8 12 26 13 17 18 23 26 28 26 32 30 39 36 42 43 48 34 51 37 41 32 38 32 48 45 51 49 47 46 35 48 22 23 22 15 30 40 64 51 39 65
14 20 18 21 18 23 27 18 24 28 30 32 26 32 26 39 36 43 46 45 48 39 50 44 52 33 33 45 38 44 45 40 40 34 23 20 17 12 20 33 41 44 44 40
14 14 25 23 28 29 27 30 26 30 32 39 30 33 45 45 44 43 47 47 53 36 44 44 47 34 47 31 47 37 31 33 40 25 32 31 25 11 13 28 30 46 43 39
17 16 17 19 26 33 36 37 31 24 31 39 47 39 50 44 44 48 46 43 47 54 47 50 51 51 33 50 34 27 46 40 39 38 33 29 29 24 34 7 24 35 36 39
31 32 27 29 29 30 37 37 39 36 36 40 47 40 27 48 45 52 35 45 50 26 56 55 38 31 54 37 51 51 37 28 45 40 31 32 28 23 41 43 9 7 40 35
30 34 40 41 39 40 36 37 38 39 42 39 48 48 37 48 50 49 56 57 60 61 59 53 60 60 46 50 52 33 53 41 45 30 41 39 34 25 27 19 26 12 12 9
34 40 34 47 43 45 43 37 41 48 49 48 47 61 54 53 45 50 61 62 57 57 64 58 56 58 57 56 55 56 49 34 47 45 44 45 41 38 26 30 21 22 27 20
45 43 53 55 47 45 55 54 57 58 49 53 49 63 59 50 54 60 61 61 59 63 60 68 57 66 61 57 50 58 54 52 52 52 53 46 49 37 42 30 27 30 25 32
53 55 51 46 53 66 50 60 54 57 54 60 53 65 61 57 65 67 63 66 66 67 71 74 73 71 67 65 61 58 59 57 55 56 50 51 49 51 37 44 42 35 34 32
52 64 66 67 71 73 77 61 83 81 75 75 66 76 81 72 66 70 63 65 68 71 82 82 78 79 74 71 71 63 57 55 63 56 59 52 57 58 58 52 44 42 40 43
63 67 70 52 42 78 73 58 85 86 51 71 49 68 71 80 80 87 90 88 78 90 81 80 84 75 77 77 73 69 67 62 63 65 60 57 52 61 60 60 57 55 46 51
81 71 44 45 76 32 48 38 79 81 95 98 99 89 94 93 96 94 97 98 93 86 86 87 93 80 80 84 87 84 77 69 68 67 71 66 62 63 65 63 61 57 53 46
75 92 88 85 75 63 96 43 93 99 100 94 95 106 100 93 86 105 105 103 107 107 102 97 90 89 89 89 88 87 79 82 79 75 70 75 71 73 70 66 67 62 46 63
100 92 110 65 85 103 106 99 99 73 110 108 108 108 110 109 87 103 101 96 98 110 108 104 98 98 93 92 90 89 90 88 86 83 80 70 77 75 73 74 75 73 61 63
113 115 104 103 105 105 104 79 107 113 113 112 111 99 98 114 114 110 115 110 104 105 103 103 93 95 103 96 100 97 97 92 87 88 55 84 49 79 78 58 76 74 73 74
73 66 67 113 117 87 116 74 109 108 103 105 95 108 95 105 92 98 103 103 102 101 92 100 101 97 91 94 92 92 92 88 88 89 93 85 89 84 82 85 86 80 77 76
116 96 119 125 125 116 118 118 118 119 111 118 114 112 114 110 101 97 97 97 100 97 43 95 95 94 92 92 92 89 87 88 87 89 81 89 92 87 88 89 90 91 87 82
124 113 126 128 84 93 127 120 125 124 111 123 94 106 100 101 99 97 95 94 95 94 93 92 91 91 91 93 91 90 90 87 85 85 83 83 75 87 87 65 88 91 91 94
127 79 47 122 125 128 123 57 123 123 124 119 108 108 104 102 99 97 97 95 94 94 93 91 89 88 88 89 89 85 83 82 82 80 79 83 78 80 79 79 81 85 85 84
127 64 113 117 117 84 102 125 89 105 101 105 104 103 101 100 88 97 97 96 95 94 92 91 89 87 85 86 85 83 80 77 75 74 72 77 71 74 79 81 81 82 77 85
70 97 79 79 46 35 57 105 111 112 113 114 79 92 99 103 102 100 99 99 97 96 94 92 91 87 85 83 83 83 78 75 74 72 72 70 72 69 69 70 70 70 81 79
114 115 114 56 43 113 102 106 106 92 87 111 81 110 106 106 105 103 101 99 97 94 93 91 89 86 84 82 73 80 72 74 67 70 66 70 65 66 67 66 40 66 59 65
Wind_Direction
264 266 241 253 253 242 262 285 258 278 294 285 316 274 307 327 318 287 309 315 331 333 332 316 335 338 344 350 356 3 14 11 265 229 223 227 248 228 226 222 226 229 243 231
255 246 235 246 240 240 262 260 267 270 288 303 292 266 291 282 319 307 324 313 328 321 330 308 337 340 344 348 328 303 6 10 13 259 233 232 226 237 233 222 223 228 230 241
241 261 236 240 255 252 273 278 297 308 247 291 322 270 313 324 323 316 282 323 303 326 328 293 320 337 339 344 346 1 6 10 12 12 293 256 238 226 233 226 227 233 230 235
238 269 254 263 282 317 270 297 268 272 310 312 315 286 285 318 318 317 313 323 314 318 325 324 330 333 337 338 346 350 1 8 10 32 357 283 247 238 225 240 225 235 231 233
238 247 295 303 260 297 263 304 302 303 300 304 298 308 303 312 311 298 305 297 316 283 326 285 322 282 331 336 340 345 354 357 5 9 29 358 257 236 230 226 222 242 237 237
282 253 284 281 286 293 263 288 300 291 299 302 299 306 310 308 299 301 304 309 308 315 316 308 320 301 275 332 326 340 343 352 351 359 260 28 338 312 234 231 236 237 245 245
291 282 287 292 285 283 295 290 298 299 305 300 293 302 304 301 308 310 307 308 300 314 308 311 317 297 324 283 329 318 330 325 343 297 349 353 9 346 287 269 269 242 251 260
259 272 280 290 306 290 288 292 295 288 302 304 298 305 298 302 305 308 306 309 310 306 310 313 312 316 301 316 268 287 325 331 331 332 341 333 338 276 275 314 252 269 253 268
297 299 300 300 299 300 298 298 297 296 294 296 294 288 281 299 307 301 286 303 303 274 309 306 271 301 308 276 315 318 307 270 318 321 265 323 326 323 264 277 332 286 264 246
303 296 299 296 296 294 293 292 291 291 289 290 291 288 288 294 297 289 297 299 298 299 301 297 298 300 300 307 307 266 306 287 310 261 311 311 310 312 307 299 295 290 278 264
294 294 288 295 293 291 290 285 286 290 289 288 287 286 288 290 289 292 291 291 299 300 297 298 292 292 293 300 297 298 297 291 296 295 302 304 300 302 297 292 287 279 277 271
290 293 293 292 291 292 294 292 290 287 287 286 284 281 284 288 287 284 285 287 288 291 293 288 294 289 289 286 293 291 292 290 298 299 295 289 295 291 296 288 282 275 267 271
291 290 293 288 293 284 291 288 290 286 286 283 286 279 280 281 282 283 282 281 285 286 288 288 287 286 285 286 282 285 287 293 286 286 282 293 292 288 286 292 286 274 272 272
285 284 283 282 283 283 284 287 285 285 286 286 285 289 290 288 286 286 285 284 280 282 291 292 286 287 284 285 292 288 282 280 281 282 285 277 278 281 284 284 279 279 280 267
285 285 285 288 276 284 284 290 285 287 288 287 281 287 282 291 290 292 292 290 285 290 285 284 287 278 279 285 282 281 281 278 274 278 276 276 285 274 271 278 281 282 269 279
283 284 283 277 285 277 288 284 285 286 291 293 291 292 294 293 292 292 291 291 288 283 286 287 290 276 277 282 284 285 283 276 274 280 283 271 271 266 271 282 267 269 286 285
285 286 285 286 280 289 289 270 291 291 292 294 297 293 294 295 294 293 292 290 291 289 289 287 282 285 285 282 282 280 273 275 275 273 272 276 268 277 267 270 265 278 277 277
286 289 282 281 286 283 283 288 289 289 287 290 291 291 290 289 290 291 289 287 290 286 286 285 284 283 281 279 277 276 276 275 274 273 272 270 269 269 266 267 277 270 268 281
285 285 289 290 290 290 289 286 288 287 287 288 291 294 294 290 289 290 288 283 285 282 283 283 281 281 279 279 279 276 276 272 271 271 274 267 272 266 266 271 263 261 269 265
284 284 285 289 291 289 289 289 292 293 297 294 295 297 290 295 288 290 287 285 283 284 283 282 281 282 279 278 276 276 275 273 272 271 268 266 266 266 266 264 263 263 261 261
283 281 286 288 290 289 292 293 293 293 296 294 293 292 286 287 287 286 286 287 286 285 274 286 285 284 281 281 280 280 277 275 269 269 270 267 267 264 265 264 262 261 261 262
285 285 288 290 286 289 292 293 289 290 294 288 290 289 289 286 285 286 285 284 284 284 283 282 282 281 281 280 279 278 276 276 268 274 273 268 269 265 264 268 262 261 262 260
284 281 282 285 289 289 288 277 290 291 290 287 287 292 288 288 288 287 286 286 285 284 283 282 282 280 280 278 276 276 276 275 273 273 271 263 267 267 265 264 262 261 261 260
285 287 286 286 287 284 292 291 288 291 296 291 290 290 289 289 287 287 286 286 286 286 284 284 283 281 279 278 278 276 274 274 274 273 272 267 267 264 261 260 260 260 260 260
278 286 281 284 285 289 282 294 289 291 291 292 291 291 291 290 290 289 290 289 289 288 287 286 285 284 282 281 279 279 276 273 273 272 269 271 267 268 265 262 262 262 260 259
288 286 287 289 284 287 289 287 290 288 288 290 291 291 291 291 291 291 291 290 288 287 287 286 285 285 283 282 282 280 281 279 279 270 274 267 270 268 263 264 261 262 262 260